Vorticity
9 8 2 4 -1 1 6 8 9 11 15 12 8 5 7 6 5 8 6 6 9 10 14 18 17 15 18 18 16 12 8 10 6 7 10 7 8 13 3 11 10 12 12 13 12 9 10
7 8 6 5 7 14 10 11 12 11 10 6 4 5 5 6 6 9 11 12 11 8 11 12 14 14 18 19 11 11 19 5 14 9 7 10 10 7 14 14 3 3 5 5 10 11 5
10 8 8 13 8 15 16 14 10 7 6 4 4 7 8 8 10 8 8 12 11 16 19 22 18 16 12 26 15 13 10 13 10 14 12 9 6 7 6 2 4 4 1 5 8 3 3
4 8 9 9 4 11 10 7 10 6 7 8 14 11 12 9 8 11 12 14 16 15 9 7 7 19 15 14 20 12 20 15 12 6 10 9 9 8 10 9 6 7 8 11 9 8 11
14 14 9 9 17 8 10 7 6 6 8 10 11 11 12 12 9 7 7 4 4 6 6 6 7 4 7 7 13 25 19 22 14 9 14 10 10 7 7 7 7 6 7 6 6 7 5
12 11 10 16 4 10 7 6 5 7 8 11 11 11 8 6 5 8 6 6 6 7 3 3 5 7 8 6 6 6 13 24 22 16 0 7 9 6 5 6 5 10 8 7 5 6 7
7 7 11 0 15 9 6 6 7 13 12 8 8 5 5 6 5 7 6 6 8 10 6 6 7 7 8 12 11 6 8 11 21 20 16 6 8 9 0 9 9 7 6 5 7 8 8
5 12 10 13 11 8 7 7 11 9 8 5 5 5 6 6 6 7 10 8 6 11 8 -4 5 9 14 8 5 13 10 7 6 27 19 6 4 10 7 8 8 7 8 6 6 5 5
6 10 10 10 9 7 6 8 10 8 6 4 6 5 4 5 6 8 8 7 8 9 15 -1 8 8 4 20 22 10 12 7 6 8 20 16 16 7 4 6 6 8 10 7 7 7 8
12 11 9 9 8 5 6 9 7 7 5 6 5 6 5 6 6 7 9 7 8 9 16 20 25 39 32 28 35 25 16 9 5 9 11 12 14 6 9 12 9 9 9 9 8 9 9
12 8 14 9 6 7 7 8 5 5 5 5 5 6 5 5 5 11 5 9 14 24 12 13 14 24 28 26 32 31 15 19 6 7 15 7 7 7 19 -4 8 8 7 11 12 12 12
11 11 7 9 7 7 6 6 5 5 6 7 6 5 5 6 8 6 7 17 22 9 10 7 31 23 19 26 20 17 26 25 9 7 8 9 8 7 7 7 6 7 8 9 9 10 9
9 12 9 6 6 5 6 5 5 5 6 5 7 6 7 6 6 7 15 20 11 -2 8 15 34 7 14 41 -2 27 18 28 14 10 8 11 6 6 10 9 11 9 6 10 12 11 9
10 9 9 6 4 6 5 5 4 5 5 6 4 6 6 6 6 12 21 14 0 8 5 38 14 1 16 25 13 12 33 31 18 12 8 8 10 7 10 6 4 7 7 7 9 8 7
12 11 6 5 5 4 5 3 5 5 6 5 6 5 5 3 11 17 14 6 2 8 16 36 10 2 19 14 25 24 -12 46 19 14 14 6 9 5 8 6 8 10 8 8 9 8 9
10 7 6 5 4 5 4 5 5 5 5 5 4 4 2 9 11 7 7 12 16 23 29 22 6 5 23 20 29 -35 22 20 22 11 16 22 14 10 11 8 11 6 8 9 8 11 10
14 6 3 4 5 5 5 4 3 2 5 5 4 5 6 11 8 40 51 47 44 27 20 8 5 11 29 27 23 -41 25 -1 19 13 12 7 8 13 11 13 8 10 7 6 6 8 9
8 3 5 4 4 4 4 4 4 4 4 4 5 6 13 19 51 23 18 16 14 12 12 13 19 19 31 24 12 -24 3 13 11 14 10 13 12 10 7 9 10 7 10 8 12 11 10
5 3 4 4 3 5 4 4 2 7 4 6 5 10 24 32 10 13 17 15 16 17 19 18 20 22 22 29 15 -1 41 -4 66 0 5 6 3 10 11 11 10 10 10 10 9 9 7
3 0 4 3 6 2 3 4 2 7 6 4 12 14 26 21 12 15 11 24 30 25 22 27 26 24 9 29 -1 -12 26 0 44 9 9 5 10 15 7 8 8 8 8 10 9 8 8
4 3 3 3 7 4 2 6 5 5 4 10 10 22 18 13 14 27 47 39 35 44 9 22 30 24 10 28 18 -36 42 20 -1 28 1 7 -0 4 8 7 6 5 11 12 8 6 7
2 2 3 3 4 5 3 4 7 4 6 6 26 19 15 12 43 55 20 -6 4 7 14 17 26 20 27 1 -1 24 -18 16 8 38 23 36 29 15 17 17 10 4 11 5 9 11 7
2 3 4 5 5 4 4 6 8 4 9 21 16 13 21 28 63 4 9 1 18 24 3 28 14 19 17 16 -5 -19 -3 19 7 7 10 -3 -18 5 4 2 13 9 7 15 8 11 11
3 4 3 5 4 2 6 7 5 9 14 20 15 15 12 72 8 0 -3 12 17 28 21 21 11 20 22 19 15 -8 -18 -19 14 15 17 9 9 4 11 2 7 2 9 12 17 8 14
9 2 5 5 3 5 6 8 5 9 24 15 8 24 21 44 -3 5 -1 -0 11 -10 16 17 13 15 23 9 8 5 25 15 3 4 7 20 1 13 13 1 11 9 14 15 13 11 14
3 5 5 5 4 7 8 5 10 18 17 15 11 20 71 9 -5 -11 21 -5 11 18 -17 0 13 12 7 17 20 9 5 9 11 1 -1 11 3 7 12 3 15 13 19 15 13 10 12
6 7 5 5 7 6 8 8 11 20 12 6 16 15 72 7 -8 2 16 -16 -4 22 -4 -23 19 32 -3 18 13 8 3 2 11 7 5 5 10 14 18 19 11 17 15 11 14 16 15
10 6 7 7 6 9 5 10 18 17 12 6 15 17 73 3 -0 -4 -0 4 -6 2 14 15 8 -3 17 20 15 16 15 8 5 5 8 10 11 12 14 11 23 16 7 14 15 5 16
10 8 6 7 7 6 10 10 21 9 4 5 17 15 37 -12 -9 -4 -1 2 1 4 7 9 15 16 7 15 10 18 13 10 8 8 13 13 12 19 16 18 16 16 10 15 9 11 10
Height
5733 5731 5732 5731 5730 5728 5727 5725 5724 5722 5721 5719 5716 5714 5712 5710 5708 5706 5704 5702 5701 5698 5697 5695 5695 5697 5700 5703 5699 5697 5699 5703 5706 5708 5711 5713 5715 5718 5721 5723 5724 5727 5730 5731 5734 5735 5738
5720 5720 5719 5719 5720 5718 5715 5714 5711 5709 5708 5707 5704 5701 5700 5698 5696 5695 5692 5690 5689 5688 5687 5684 5683 5685 5686 5690 5683 5684 5685 5689 5692 5695 5697 5701 5704 5706 5710 5714 5715 5718 5720 5723 5725 5728 5729
5708 5707 5707 5707 5707 5705 5703 5702 5700 5699 5697 5695 5693 5691 5689 5688 5686 5684 5681 5679 5679 5678 5676 5673 5672 5672 5675 5675 5670 5672 5672 5674 5678 5680 5683 5687 5690 5695 5699 5703 5705 5708 5712 5714 5718 5719 5721
5696 5697 5695 5694 5693 5692 5691 5690 5689 5687 5687 5685 5683 5681 5680 5679 5678 5676 5673 5670 5669 5668 5667 5665 5663 5663 5663 5661 5658 5657 5660 5662 5661 5666 5669 5672 5677 5682 5687 5691 5695 5698 5701 5704 5707 5709 5711
5686 5685 5683 5684 5683 5682 5681 5681 5679 5677 5676 5676 5674 5672 5670 5668 5667 5667 5664 5662 5661 5659 5658 5656 5654 5652 5653 5650 5649 5646 5647 5648 5649 5653 5657 5661 5665 5671 5675 5679 5683 5687 5691 5695 5696 5699 5702
5673 5673 5673 5673 5674 5673 5672 5672 5669 5668 5668 5666 5665 5662 5660 5658 5657 5656 5654 5651 5649 5649 5649 5645 5643 5644 5640 5639 5638 5638 5636 5636 5638 5639 5642 5649 5653 5659 5664 5667 5674 5679 5680 5683 5686 5689 5691
5663 5663 5663 5663 5664 5664 5663 5662 5660 5658 5658 5656 5655 5654 5650 5649 5646 5645 5645 5642 5638 5638 5635 5631 5629 5627 5629 5623 5628 5629 5628 5625 5627 5628 5632 5636 5641 5647 5657 5659 5662 5665 5669 5672 5677 5680 5683
5652 5652 5652 5653 5653 5653 5652 5652 5651 5650 5649 5647 5646 5644 5640 5638 5634 5633 5631 5629 5626 5622 5625 5618 5613 5612 5607 5607 5616 5617 5613 5616 5616 5620 5620 5625 5631 5640 5643 5648 5652 5656 5660 5664 5667 5669 5672
5641 5641 5641 5642 5643 5643 5643 5643 5643 5641 5640 5638 5637 5634 5631 5627 5624 5622 5618 5615 5610 5605 5603 5610 5591 5593 5591 5589 5594 5603 5598 5605 5607 5608 5611 5616 5623 5627 5632 5638 5643 5647 5652 5654 5656 5659 5664
5629 5630 5630 5631 5632 5634 5634 5634 5633 5633 5632 5630 5627 5625 5622 5616 5616 5610 5605 5601 5596 5590 5585 5587 5579 5577 5574 5569 5575 5581 5586 5589 5594 5601 5604 5605 5612 5618 5624 5630 5634 5638 5643 5645 5648 5651 5655
5619 5620 5621 5621 5623 5625 5626 5626 5625 5624 5623 5621 5618 5614 5611 5606 5604 5600 5592 5586 5581 5576 5571 5570 5565 5561 5562 5559 5558 5561 5566 5574 5582 5590 5594 5600 5605 5609 5615 5622 5624 5629 5634 5637 5639 5641 5645
5608 5611 5611 5612 5614 5616 5617 5617 5617 5615 5614 5612 5608 5604 5599 5596 5593 5588 5579 5573 5568 5566 5559 5560 5553 5551 5549 5547 5547 5551 5554 5563 5570 5577 5584 5590 5595 5601 5607 5613 5617 5622 5626 5629 5631 5633 5636
5599 5600 5601 5603 5606 5608 5609 5609 5608 5607 5604 5601 5597 5592 5588 5584 5580 5574 5568 5561 5556 5554 5549 5546 5545 5541 5539 5540 5541 5540 5544 5551 5558 5567 5574 5581 5587 5594 5600 5605 5610 5614 5617 5621 5624 5626 5629
5589 5591 5593 5596 5598 5600 5601 5600 5599 5598 5595 5591 5585 5580 5576 5572 5567 5561 5555 5550 5544 5538 5538 5533 5533 5533 5530 5531 5533 5536 5539 5544 5551 5559 5566 5574 5582 5588 5593 5598 5602 5605 5609 5614 5615 5618 5621
5581 5582 5586 5589 5591 5592 5593 5592 5591 5590 5586 5581 5575 5569 5564 5559 5553 5546 5542 5536 5530 5525 5523 5521 5523 5523 5523 5522 5527 5530 5534 5539 5544 5550 5560 5566 5572 5579 5585 5589 5595 5599 5602 5606 5609 5611 5614
5573 5575 5578 5582 5584 5585 5584 5584 5582 5580 5575 5570 5565 5557 5552 5545 5538 5531 5524 5519 5513 5507 5507 5509 5513 5514 5515 5517 5520 5524 5529 5536 5541 5545 5552 5559 5565 5571 5577 5582 5587 5591 5595 5598 5602 5605 5607
5565 5568 5572 5575 5576 5576 5576 5575 5573 5570 5565 5560 5554 5546 5539 5532 5523 5512 5503 5498 5496 5493 5495 5499 5503 5504 5508 5511 5515 5521 5526 5532 5537 5545 5548 5554 5561 5567 5571 5575 5579 5584 5587 5591 5595 5599 5599
5556 5561 5565 5567 5568 5568 5567 5565 5563 5560 5555 5550 5542 5534 5526 5518 5508 5499 5494 5491 5489 5487 5486 5488 5492 5495 5501 5505 5509 5517 5519 5526 5532 5536 5544 5551 5557 5562 5566 5570 5574 5577 5581 5585 5588 5591 5591
5550 5555 5558 5560 5561 5560 5559 5557 5554 5551 5546 5539 5531 5523 5514 5505 5498 5493 5488 5484 5481 5480 5478 5480 5483 5488 5494 5500 5507 5513 5517 5525 5525 5531 5539 5547 5552 5557 5562 5567 5570 5573 5576 5578 5581 5584 5586
5544 5548 5551 5553 5553 5551 5550 5548 5545 5542 5536 5530 5522 5513 5504 5496 5491 5485 5480 5475 5473 5472 5473 5472 5477 5482 5490 5496 5504 5512 5518 5521 5524 5529 5535 5541 5547 5553 5558 5562 5565 5568 5571 5574 5575 5577 5580
5537 5541 5544 5545 5544 5544 5542 5540 5537 5533 5527 5520 5514 5505 5498 5490 5484 5477 5473 5472 5469 5468 5470 5469 5474 5479 5486 5493 5499 5507 5514 5520 5521 5521 5530 5537 5541 5547 5551 5556 5560 5564 5566 5568 5570 5572 5569
5532 5534 5536 5536 5537 5536 5534 5531 5530 5526 5518 5511 5505 5500 5491 5485 5478 5474 5474 5473 5472 5471 5469 5469 5471 5476 5483 5490 5495 5503 5509 5514 5515 5518 5524 5532 5537 5542 5546 5552 5557 5561 5562 5563 5564 5564 5565
5523 5526 5528 5529 5529 5528 5526 5524 5522 5517 5510 5503 5498 5493 5486 5481 5477 5478 5478 5475 5474 5472 5471 5470 5474 5478 5482 5487 5492 5499 5504 5510 5513 5516 5521 5527 5533 5538 5543 5548 5552 5556 5557 5559 5561 5560 5561
5515 5518 5521 5522 5521 5521 5520 5517 5514 5510 5503 5498 5493 5488 5483 5481 5480 5480 5479 5477 5476 5474 5473 5472 5476 5481 5484 5487 5493 5498 5503 5508 5510 5514 5519 5524 5530 5536 5540 5545 5548 5549 5552 5554 5556 5556 5556
5506 5510 5513 5515 5516 5514 5513 5510 5506 5503 5498 5493 5489 5486 5482 5481 5482 5482 5481 5479 5479 5479 5477 5476 5479 5482 5485 5488 5494 5498 5504 5509 5513 5516 5519 5524 5529 5534 5537 5541 5545 5545 5546 5548 5551 5552 5551
5498 5502 5505 5507 5508 5508 5506 5503 5499 5496 5493 5489 5486 5483 5480 5481 5483 5483 5483 5483 5483 5482 5482 5481 5483 5484 5488 5491 5494 5498 5504 5508 5513 5516 5521 5525 5528 5532 5533 5537 5539 5541 5541 5543 5545 5546 5546
5490 5494 5497 5500 5500 5500 5499 5497 5493 5491 5489 5486 5483 5481 5479 5481 5482 5483 5484 5484 5484 5484 5485 5485 5486 5488 5490 5493 5495 5500 5505 5509 5512 5515 5520 5522 5524 5526 5529 5531 5535 5536 5538 5538 5541 5544 5541
5481 5486 5489 5492 5493 5493 5492 5490 5488 5486 5485 5483 5480 5479 5479 5480 5482 5483 5485 5486 5487 5488 5488 5489 5491 5492 5493 5495 5497 5499 5504 5508 5511 5514 5516 5519 5521 5523 5526 5527 5531 5531 5534 5536 5537 5537 5537
5474 5478 5482 5484 5486 5486 5485 5484 5483 5482 5482 5480 5478 5477 5477 5479 5482 5483 5484 5487 5488 5489 5491 5491 5493 5493 5495 5496 5499 5501 5504 5508 5511 5513 5515 5518 5519 5521 5523 5524 5525 5526 5529 5532 5534 5535 5535